Regional Weather Roundup
Issued by NWS

Home | Current Version | Previous Version | Graphics & Text | Print | Product List | Glossary On
Versions: 1 2 3 4 5 6 7 8 9 10 11 12 13 14 15 16 17 18 19 20 21 22 23 24 25 26 27 28 29 30 31 32 33 34 35 36 37 38 39 40 41 42 43 44 45 46 47 48 49 50
000
ASUS43 KIND 080059
RWRIN

WEATHER ROUNDUP FOR INDIANA
NATIONAL WEATHER SERVICE INDIANAPOLIS IN
800 PM EST WED DEC 07 2016

NOTE: "FAIR" INDICATES FEW OR NO CLOUDS BELOW 12,000 FEET WITH NO
SIGNIFICANT WEATHER AND/OR OBSTRUCTIONS TO VISIBILITY.

* - STATION DOES NOT REPORT WEATHER SUCH AS PRECIPITATION OR FOG.

+ - STATION NOT QUALITY CONTROLLED BY THE NATIONAL WEATHER SERVICE.
    USE DATA WITH CAUTION...ESPECIALLY DEWPOINT AND RELATIVE
    HUMIDITY OBSERVATIONS.

INZ001>003-010>013-019-020-080200-
NORTHWEST INDIANA

CITY           SKY/WX    TMP DP  RH WIND       PRES   REMARKS
GARY /AIRPORT/ CLEAR     28  19  69 W17G33    30.15R WCI  16
RENSSELAER +     N/A     30  25  80 W16G23    30.16R WCI  19

$$

LMZ046-743>745-080200-
SOUTHERN LAKE MICHIGAN

STATION/POSITION TIME  TEMP    WIND        PRES    WAVE
                       AIR SEA DIR/SP/G            HT
                 (UTC) (F)     (DEG/KT/KT) (MB)    (FT)
BURNS HARBOR     0040   30     260/ 22/ 29 1020.3S
MICHIGAN CITY    0030   29     230/ 32/ 37   N/A

$$

INZ004-005-014>016-021>024-080200-
NORTH CENTRAL INDIANA

CITY           SKY/WX    TMP DP  RH WIND       PRES   REMARKS
ELKHART        PTCLDY    28  19  69 W15       30.09S WCI  17
GOSHEN         MOCLDY    28  21  75 W15       30.10S WCI  16
SOUTH BEND     PTCLDY    26  19  74 W17       30.11R WCI  13

$$

INZ006>009-017-018-025>027-080200-
NORTHEAST INDIANA

CITY           SKY/WX    TMP DP  RH WIND       PRES   REMARKS
ANGOLA *+      PTCLDY    28  18  64 W10       30.06S WCI  19
FORT WAYNE     MOCLDY    31  24  75 W13       30.10S WCI  21
KENDALLVILLE + PTCLDY    29  23  79 W17       30.08S WCI  17

$$

INZ028-029-035-036-043>045-051>053-080200-
WEST CENTRAL INDIANA

CITY           SKY/WX    TMP DP  RH WIND       PRES   REMARKS
CRAWFORDSVL +  CLEAR     28  23  82 W9        30.17F WCI  19
GREENCASTLE +  CLOUDY    32  27  80 W6        30.19R WCI  26
LAFAYETTE      PTCLDY    29  23  78 W9        30.17S WCI  20
TERRE HAUTE    MOCLDY    32  22  66 W7        30.22R WCI  26

$$

INZ030>032-037>040-046>048-054>057-064-065-080200-
CENTRAL INDIANA

CITY           SKY/WX    TMP DP  RH WIND       PRES   REMARKS
COLUMBUS       CLOUDY    32  25  74 W8        30.18S WCI  25
GREENWOOD *+   CLOUDY    33  24  68 W9        30.17S WCI  25
INDIANAPOLIS   CLOUDY    32  22  66 W13       30.17S WCI  22
-EAGLE CREEK   CLOUDY    32  23  69 W13       30.16F WCI  22
KOKOMO +       PTCLDY    30  25  81 W18       30.15R WCI  18
SHELBYVILLE    CLOUDY    34  23  64 W10       30.15S WCI  26

$$

INZ033-034-041-042-049-050-058-059-080200-
EAST CENTRAL INDIANA

CITY           SKY/WX    TMP DP  RH WIND       PRES   REMARKS
MUNCIE         CLOUDY    33  24  69 W12       30.12F WCI  24

$$

INZ060-061-067>069-081>083-085>088-080200-
SOUTHWEST INDIANA

CITY           SKY/WX    TMP DP  RH WIND       PRES   REMARKS
EVANSVILLE     CLOUDY    36  24  62 NW3       30.24F
HUNTINGBURG *+ CLOUDY    35  25  66 W5        30.23S WCI  31

$$

INZ062-063-066-070>080-084-089>092-080200-
SOUTH CENTRAL AND SOUTHEAST INDIANA

CITY           SKY/WX    TMP DP  RH WIND       PRES   REMARKS
BLOOMINGTON    CLOUDY    33  22  63 W6        30.19R WCI  28
MADISON *+     CLOUDY    34  23  64 SW5       30.20S WCI  30
SEYMOUR +      CLOUDY    36  25  64 W6        30.20R

$$





USA.gov is the U.S. government's official web portal to all federal, state and local government web resources and services.